Change the Weather History Date:

Monday, April 23, 2012

  Actual Average Record
Temperature  
Mean Temperature 6 °F -  
Max Temperature 10 °F 13 °F 32 °F (2005)
Min Temperature 1 °F 0 °F -22 °F (1987)
Degree Days  
Heating Degree Days 60    
Moisture  
Dew Point 4 °F    
Average Humidity 86    
Maximum Humidity 92    
Minimum Humidity 79    
Precipitation  
Precipitation 0.00 in - - ()
Sea Level Pressure  
Sea Level Pressure 30.15 in    
Wind  
Wind Speed 8 mph (East)    
Max Wind Speed 13 mph    
Max Gust Speed -    
Visibility 8 miles    
Events Snow    
Averages and records for this station are not official NWS values.
T = Trace of Precipitation, MM = Missing Value Source: NWS Daily Summary

Daily Weather History Graph

Daily Weather History Graph

Search for Another Location

Airport or City:

Trip Planner

Search our weather history database for the weather conditions in past years. The results will help you decide how hot, cold, wet, or windy it might be!

Date:

Astronomy

Apr. 23, 2012 Rise Set
Actual Time 5:02 AM AKDT 10:45 PM AKDT
Civil Twilight 3:08 AM AKDT 12:46 AM AKDT
Nautical Twilight Sun does not rise Sun does not rise
Astronomical Twilight Sun does not rise Sun does not rise
Moon No Moon Rise No Moon Set
Length of Visible Light 21h 38m
Length of Day
17h 42m
Waxing Crescent, 6% of the Moon is Illuminated
Apr 23
Waxing Crescent
Apr 29
First Quarter
May 5
Full
May 12
Last Quarter
May 20
New

Hourly Weather History & Observations

Time (AKDT) Temp. Windchill Dew Point Humidity Pressure Visibility Wind Dir Wind Speed Gust Speed Precip Events Conditions
12:53 AM 1.9 °F -10.6 °F -0.0 °F 91% 30.18 in 10.0 mi ENE 6.9 mph - N/A   Overcast
1:53 AM 1.9 °F -7.6 °F -0.0 °F 91% 30.18 in 10.0 mi ENE 4.6 mph - N/A   Overcast
2:53 AM 3.0 °F -9.3 °F -0.0 °F 87% 30.18 in 10.0 mi ENE 6.9 mph - N/A   Overcast
3:53 AM 3.9 °F -5.3 °F 1.0 °F 88% 30.18 in 10.0 mi East 4.6 mph - N/A   Overcast
4:37 AM 3.2 °F -10.3 °F 1.4 °F 92% 30.16 in 10.0 mi East 8.1 mph - N/A   Overcast
4:53 AM 3.9 °F -9.4 °F 1.9 °F 91% 30.16 in 10.0 mi East 8.1 mph - N/A   Overcast
5:09 AM 3.2 °F -10.3 °F 1.4 °F 92% 30.15 in 10.0 mi ENE 8.1 mph - N/A   Overcast
5:36 AM 5.0 °F -6.9 °F 1.4 °F 85% 30.16 in 10.0 mi East 6.9 mph - N/A   Overcast
5:53 AM 5.0 °F -6.9 °F 1.9 °F 87% 30.17 in 6.0 mi East 6.9 mph - N/A Snow Light Snow
5:58 AM 5.0 °F -6.9 °F 1.4 °F 85% 30.16 in 4.0 mi East 6.9 mph - N/A Snow Light Snow
6:53 AM 5.0 °F -6.9 °F 3.0 °F 92% 30.17 in 10.0 mi East 6.9 mph - N/A   Overcast
7:53 AM 6.1 °F -9.5 °F 3.0 °F 87% 30.16 in 10.0 mi ENE 11.5 mph - N/A   Overcast
8:53 AM 6.1 °F -7.8 °F 3.0 °F 87% 30.16 in 10.0 mi East 9.2 mph - N/A   Overcast
9:53 AM 7.0 °F -6.6 °F 3.0 °F 84% 30.16 in 10.0 mi East 9.2 mph - N/A   Overcast
10:53 AM 7.0 °F -6.6 °F 3.0 °F 84% 30.15 in 8.0 mi East 9.2 mph - N/A   Overcast
11:38 AM 8.6 °F -4.7 °F 3.2 °F 79% 30.14 in 1.0 mi East 9.2 mph - N/A Snow Light Snow
11:53 AM 8.1 °F -5.3 °F 3.9 °F 83% 30.15 in 1.0 mi East 9.2 mph - N/A Snow Light Snow
12:02 PM 8.6 °F -4.7 °F 3.2 °F 79% 30.14 in 1.2 mi East 9.2 mph - N/A Snow Light Snow
12:11 PM 8.6 °F -4.7 °F 3.2 °F 79% 30.14 in 3.0 mi East 9.2 mph - N/A Snow Light Snow
12:53 PM 8.1 °F -5.3 °F 3.9 °F 83% 30.15 in 6.0 mi East 9.2 mph - N/A Snow Light Snow
1:53 PM 9.0 °F -4.2 °F 6.1 °F 88% 30.14 in 6.0 mi East 9.2 mph - N/A Snow Light Snow
2:53 PM 10.0 °F -1.9 °F 6.1 °F 84% 30.14 in 3.0 mi East 8.1 mph - N/A Snow Light Snow
3:53 PM 10.0 °F -1.9 °F 7.0 °F 87% 30.13 in 6.0 mi East 8.1 mph - N/A   Overcast
4:53 PM 10.9 °F -0.8 °F 7.0 °F 84% 30.12 in 7.0 mi East 8.1 mph - N/A   Mostly Cloudy
5:53 PM 10.9 °F -1.8 °F 7.0 °F 84% 30.12 in 10.0 mi East 9.2 mph - N/A   Overcast
6:53 PM 10.0 °F -2.9 °F 7.0 °F 87% 30.12 in 10.0 mi East 9.2 mph - N/A   Overcast
7:53 PM 10.9 °F -4.1 °F 7.0 °F 84% 30.12 in 10.0 mi ENE 12.7 mph - N/A   Overcast
8:53 PM 10.0 °F -2.9 °F 7.0 °F 87% 30.12 in 10.0 mi ENE 9.2 mph - N/A   Overcast
9:53 PM 10.9 °F -1.8 °F 8.1 °F 88% 30.12 in 9.0 mi ENE 9.2 mph - N/A Snow Light Snow
10:53 PM 10.9 °F -2.6 °F 8.1 °F 88% 30.12 in 7.0 mi ENE 10.4 mph - N/A Snow Light Snow
11:53 PM 10.0 °F -1.9 °F 7.0 °F 87% 30.12 in 9.0 mi ENE 8.1 mph - N/A Snow Light Snow